Weather History for KLMT - June, 2012

Change the Weather History Date:

Sunday, June 17, 2012

  Actual Average Record
Temperature  
Mean Temperature 66 °F 58 °F  
Max Temperature 84 °F 74 °F 91 °F (2003)
Min Temperature 48 °F 43 °F 30 °F (1954)
Degree Days  
Heating Degree Days 0 7  
Month to date heating degree days 168 151  
Since 1 June heating degree days 168 151  
Since 1 July heating degree days 6723 6907  
Cooling Degree Days 1 0  
Month to date cooling degree days 2 0  
Year to date cooling degree days 3 1  
Since 1 June cooling degree days 2 0  
Growing Degree Days 16 (Base 50)    
Moisture  
Dew Point 41 °F    
Average Humidity 49    
Maximum Humidity 93    
Minimum Humidity 10    
Precipitation  
Precipitation 0.00 in 0.05 in 0.69 in (1965)
Month to date precipitation 0.93 0.45  
Year to date precipitation 5.87 8.24  
Sea Level Pressure  
Sea Level Pressure 29.91 in    
Wind  
Wind Speed 9 mph (West)    
Max Wind Speed 24 mph    
Max Gust Speed 30 mph    
Visibility 10 miles    
Events      
T = Trace of Precipitation, MM = Missing Value Source: NWS Daily Summary

Daily Weather History Graph

Daily Weather History Graph

Search for Another Location

Airport or City:

Trip Planner

Search our weather history database for the weather conditions in past years. The results will help you decide how hot, cold, wet, or windy it might be!

Date:

Astronomy

Jun. 17, 2012 Rise Set
Actual Time 5:30 AM PDT 8:45 PM PDT
Civil Twilight 4:55 AM PDT 9:20 PM PDT
Nautical Twilight 4:11 AM PDT 10:04 PM PDT
Astronomical Twilight 3:16 AM PDT 10:59 PM PDT
Moon 4:04 AM PDT (6/17) 7:18 PM PDT (6/17)
Length of Visible Light 16h 24m
Length of Day
15h 15m
Waning Crescent, 3% of the Moon is Illuminated
Jun 17
Waning Crescent
Jun 19
New
Jun 26
First Quarter
Jul 3
Full
Jul 10
Last Quarter

Hourly Weather History & Observations

Time (PDT) Temp. Dew Point Humidity Pressure Visibility Wind Dir Wind Speed Gust Speed Precip Events Conditions
12:53 AM 57.0 °F 50.0 °F 77% 29.98 in 10.0 mi Calm Calm - N/A   Clear
1:53 AM 53.1 °F 48.9 °F 86% 29.97 in 10.0 mi Calm Calm - N/A   Clear
2:53 AM 53.1 °F 48.9 °F 86% 29.96 in 10.0 mi Calm Calm - N/A   Clear
3:53 AM 52.0 °F 46.9 °F 83% 29.94 in 10.0 mi Calm Calm - N/A   Clear
4:53 AM 50.0 °F 46.9 °F 89% 29.95 in 10.0 mi Calm Calm - N/A   Clear
5:53 AM 48.0 °F 46.0 °F 93% 29.95 in 10.0 mi Calm Calm - N/A   Clear
6:00 AM 48.2 °F 46.4 °F 93% 30.06 in 10.0 mi Calm Calm - N/A   Partly Cloudy
6:53 AM 55.9 °F 50.0 °F 80% 29.94 in 10.0 mi SE 3.5 mph - N/A   Partly Cloudy
7:53 AM 63.0 °F 51.1 °F 65% 29.94 in 10.0 mi Calm Calm - N/A   Partly Cloudy
8:53 AM 68.0 °F 46.9 °F 47% 29.93 in 10.0 mi Variable 3.5 mph - N/A   Clear
9:53 AM 72.0 °F 48.0 °F 43% 29.93 in 10.0 mi Variable 3.5 mph - N/A   Clear
10:53 AM 75.0 °F 46.0 °F 36% 29.92 in 10.0 mi South 8.1 mph - N/A   Clear
11:53 AM 78.1 °F 44.1 °F 30% 29.91 in 10.0 mi WSW 12.7 mph 18.4 mph N/A   Clear
12:53 PM 81.0 °F 37.0 °F 21% 29.89 in 10.0 mi WSW 12.7 mph 20.7 mph N/A   Clear
1:53 PM 84.0 °F 21.0 °F 10% 29.87 in 10.0 mi WNW 18.4 mph - N/A   Clear
2:53 PM 82.9 °F 30.0 °F 15% 29.87 in 10.0 mi West 17.3 mph 21.9 mph N/A   Clear
3:53 PM 82.9 °F 27.0 °F 13% 29.87 in 10.0 mi West 18.4 mph 26.5 mph N/A   Clear
4:53 PM 82.0 °F 21.0 °F 10% 29.87 in 10.0 mi WNW 18.4 mph - N/A   Clear
5:53 PM 80.1 °F 25.0 °F 13% 29.86 in 10.0 mi WNW 17.3 mph 23.0 mph N/A   Clear
6:53 PM 77.0 °F 27.0 °F 16% 29.84 in 10.0 mi WNW 17.3 mph 23.0 mph N/A   Clear
7:53 PM 73.0 °F 33.1 °F 23% 29.83 in 10.0 mi NW 13.8 mph - N/A   Clear
8:53 PM 64.9 °F 37.0 °F 36% 29.84 in 10.0 mi WSW 3.5 mph - N/A   Clear
9:53 PM 64.9 °F 44.1 °F 47% 29.84 in 7.0 mi NW 6.9 mph - N/A   Clear
10:53 PM 62.6 °F 48.2 °F 59% 29.97 in 10.0 mi West 10.4 mph - N/A   Clear
11:53 PM 61.0 °F 46.0 °F 58% 29.83 in 10.0 mi WNW 11.5 mph 19.6 mph N/A   Clear